When you browse on this site, cookies collect data to enhance your experience and personalize the content and advertising you see.
Visit our Privacy Policy to learn more. By continuing to use the site, you agree to this use of cookies and data.
  • en Belgique
  • Liste des pays
  • À 7 jours
  • Température de l'eau
  • Carte satellitaire
  • Carte météo
  • Widgets météo
  • user-avatar
    Se connecter

    Météo par heure à Sozopol

    Ce jour, 23 Février, Samedi

    Heure Température Précipitation Vent Pression Humidité
    00:00 -1°C° 0.6 mm 14 m/s 760 mmHg 86%
    01:00 -2°C° 0.6 mm 14 m/s 760 mmHg 86%
    02:00 -4°C° 0 mm 15 m/s 762 mmHg 87%
    03:00 -5°C° 0.7 mm 14 m/s 762 mmHg 87%
    04:00 -6°C° 0.7 mm 13 m/s 763 mmHg 86%
    05:00 -7°C° 0.7 mm 13 m/s 764 mmHg 85%
    06:00 -7°C° 0.2 mm 13 m/s 765 mmHg 83%
    07:00 -8°C° 0.2 mm 12 m/s 766 mmHg 81%
    08:00 -8°C° 0 mm 11 m/s 768 mmHg 78%
    09:00 -8°C° 0.1 mm 11 m/s 768 mmHg 77%
    10:00 -8°C° 0.1 mm 12 m/s 769 mmHg 76%
    11:00 -8°C° 0.1 mm 12 m/s 769 mmHg 74%
    12:00 -7°C° 0.1 mm 11 m/s 769 mmHg 73%
    13:00 -7°C° 0.1 mm 11 m/s 770 mmHg 72%
    14:00 -7°C° 0.1 mm 10 m/s 770 mmHg 71%
    15:00 -5°C° 0 mm 10 m/s 770 mmHg 72%
    16:00 -5°C° 0 mm 10 m/s 770 mmHg 72%
    17:00 -5°C° 0 mm 10 m/s 770 mmHg 72%
    18:00 -5°C° 0.1 mm 10 m/s 771 mmHg 73%
    19:00 -7°C° 0.1 mm 10 m/s 771 mmHg 74%
    20:00 -6°C° 0.1 mm 9 m/s 771 mmHg 75%
    21:00 -6°C° 0.1 mm 9 m/s 771 mmHg 74%
    22:00 -6°C° 0.1 mm 9 m/s 771 mmHg 74%
    23:00 -6°C° 0.1 mm 9 m/s 772 mmHg 73%

    Demain, 24 Février, Dimanche

    Heure Température Précipitation Vent Pression Humidité
    00:00 -6°C° 0 mm 9 m/s 772 mmHg 74%
    01:00 -6°C° 0 mm 9 m/s 772 mmHg 74%
    02:00 -6°C° 0 mm 9 m/s 772 mmHg 75%
    03:00 -6°C° 0.1 mm 9 m/s 771 mmHg 75%
    04:00 -6°C° 0.1 mm 9 m/s 771 mmHg 76%
    05:00 -8°C° 0.1 mm 9 m/s 771 mmHg 76%
    06:00 -8°C° 0.1 mm 9 m/s 771 mmHg 76%
    07:00 -6°C° 0.1 mm 9 m/s 771 mmHg 76%
    08:00 -6°C° 0.1 mm 9 m/s 772 mmHg 77%
    09:00 -6°C° 0.1 mm 9 m/s 772 mmHg 75%
    10:00 -6°C° 0.1 mm 9 m/s 772 mmHg 73%
    11:00 -5°C° 0.1 mm 9 m/s 772 mmHg 72%
    12:00 -5°C° 0 mm 8 m/s 772 mmHg 70%
    13:00 -4°C° 0 mm 8 m/s 772 mmHg 69%
    14:00 -3°C° 0 mm 7 m/s 771 mmHg 67%
    15:00 -3°C° 0 mm 7 m/s 771 mmHg 67%
    16:00 -3°C° 0 mm 7 m/s 771 mmHg 67%
    17:00 -3°C° 0 mm 7 m/s 771 mmHg 66%
    18:00 -3°C° 0 mm 6 m/s 772 mmHg 67%
    19:00 -4°C° 0 mm 6 m/s 772 mmHg 67%
    20:00 -4°C° 0 mm 6 m/s 772 mmHg 67%
    21:00 -4°C° 0 mm 6 m/s 772 mmHg 67%
    22:00 -4°C° 0 mm 6 m/s 772 mmHg 67%
    23:00 -5°C° 0 mm 6 m/s 772 mmHg 68%

    Après-demain, 25 Février, Lundi

    Heure Température Précipitation Vent Pression Humidité
    00:00 -5°C° 0 mm 6 m/s 772 mmHg 68%
    01:00 -5°C° 0 mm 6 m/s 772 mmHg 68%
    02:00 -5°C° 0 mm 6 m/s 772 mmHg 67%
    03:00 -6°C° 0 mm 7 m/s 772 mmHg 68%
    04:00 -6°C° 0 mm 7 m/s 771 mmHg 68%
    05:00 -6°C° 0 mm 7 m/s 771 mmHg 68%
    06:00 -4°C° 0 mm 7 m/s 771 mmHg 68%
    07:00 -4°C° 0 mm 7 m/s 771 mmHg 68%
    08:00 -4°C° 0 mm 7 m/s 771 mmHg 68%
    09:00 -3°C° 0 mm 7 m/s 771 mmHg 67%
    10:00 -3°C° 0 mm 7 m/s 771 mmHg 66%
    11:00 -2°C° 0 mm 6 m/s 771 mmHg 65%
    12:00 -1°C° 0 mm 6 m/s 770 mmHg 64%
    13:00 -1°C° 0 mm 6 m/s 770 mmHg 62%
    14:00 +1°C° 0 mm 5 m/s 769 mmHg 60%
    15:00 +1°C° 0 mm 5 m/s 769 mmHg 60%
    16:00 +1°C° 0 mm 5 m/s 768 mmHg 59%
    17:00 +1°C° 0 mm 5 m/s 768 mmHg 59%
    18:00 0°C° 0 mm 5 m/s 768 mmHg 62%
    19:00 0°C° 0 mm 5 m/s 768 mmHg 64%
    20:00 -1°C° 0 mm 5 m/s 768 mmHg 66%
    21:00 -1°C° 0 mm 5 m/s 768 mmHg 67%
    22:00 -1°C° 0 mm 5 m/s 767 mmHg 68%
    23:00 -2°C° 0 mm 5 m/s 767 mmHg 69%

    26 Février, Mardi

    Heure Température Précipitation Vent Pression Humidité
    00:00 -2°C° 0 mm 5 m/s 767 mmHg 70%
    01:00 -2°C° 0 mm 5 m/s 766 mmHg 71%
    02:00 -2°C° 0 mm 5 m/s 766 mmHg 72%
    03:00 -4°C° 0 mm 5 m/s 765 mmHg 71%
    04:00 -4°C° 0 mm 5 m/s 765 mmHg 70%
    05:00 -4°C° 0 mm 5 m/s 764 mmHg 69%
    06:00 -2°C° 0 mm 5 m/s 764 mmHg 67%
    07:00 -2°C° 0 mm 5 m/s 764 mmHg 65%
    08:00 -1°C° 0 mm 4 m/s 764 mmHg 63%
    09:00 +1°C° 0 mm 4 m/s 764 mmHg 59%
    10:00 +3°C° 0 mm 4 m/s 763 mmHg 55%
    11:00 +5°C° 0 mm 4 m/s 763 mmHg 50%
    12:00 +6°C° 0 mm 4 m/s 762 mmHg 48%
    13:00 +8°C° 0 mm 3 m/s 762 mmHg 46%
    14:00 +9°C° 0 mm 3 m/s 761 mmHg 44%
    15:00 +8°C° 0 mm 3 m/s 761 mmHg 49%
    16:00 +6°C° 0 mm 4 m/s 760 mmHg 53%
    17:00 +6°C° 0 mm 4 m/s 760 mmHg 58%
    18:00 +5°C° 0 mm 4 m/s 760 mmHg 62%
    19:00 +4°C° 0 mm 4 m/s 760 mmHg 65%
    20:00 +3°C° 0 mm 4 m/s 759 mmHg 69%
    21:00 +1°C° 0 mm 4 m/s 759 mmHg 70%
    22:00 +1°C° 0 mm 4 m/s 759 mmHg 72%
    23:00 +1°C° 0 mm 4 m/s 759 mmHg 73%

    27 Février, Mercredi

    Heure Température Précipitation Vent Pression Humidité
    00:00 +1°C° 0 mm 5 m/s 758 mmHg 74%
    01:00 +1°C° 0 mm 5 m/s 758 mmHg 75%
    02:00 +2°C° 0 mm 5 m/s 758 mmHg 75%
    03:00 +2°C° 0.6 mm 5 m/s 758 mmHg 78%
    04:00 +2°C° 0.6 mm 5 m/s 758 mmHg 80%
    05:00 +2°C° 0.6 mm 5 m/s 758 mmHg 82%
    06:00 +2°C° 0.1 mm 6 m/s 758 mmHg 83%
    07:00 +2°C° 0.1 mm 6 m/s 759 mmHg 84%
    08:00 +2°C° 0.1 mm 7 m/s 759 mmHg 84%
    09:00 +3°C° 0.1 mm 7 m/s 760 mmHg 80%
    10:00 +2°C° 0.1 mm 8 m/s 760 mmHg 76%
    11:00 +4°C° 0.1 mm 8 m/s 760 mmHg 71%
    12:00 +4°C° 0.1 mm 7 m/s 761 mmHg 69%
    13:00 +4°C° 0.1 mm 7 m/s 761 mmHg 67%
    14:00 +5°C° 0.1 mm 7 m/s 761 mmHg 65%
    15:00 +4°C° 0.1 mm 7 m/s 761 mmHg 66%
    16:00 +4°C° 0.1 mm 6 m/s 761 mmHg 68%
    17:00 +4°C° 0.1 mm 6 m/s 761 mmHg 70%
    18:00 +3°C° 0.1 mm 6 m/s 761 mmHg 70%
    19:00 +3°C° 0.1 mm 6 m/s 762 mmHg 71%
    20:00 +2°C° 0.1 mm 5 m/s 762 mmHg 72%
    21:00 +2°C° 0 mm 5 m/s 762 mmHg 73%
    22:00 +2°C° 0 mm 5 m/s 762 mmHg 73%
    23:00 +1°C° 0 mm 4 m/s 762 mmHg 74%

    28 Février, Jeudi

    Heure Température Précipitation Vent Pression Humidité
    00:00 +1°C° 0 mm 4 m/s 762 mmHg 75%
    01:00 +1°C° 0 mm 4 m/s 762 mmHg 77%
    02:00 +2°C° 0 mm 3 m/s 762 mmHg 78%
    03:00 +1°C° 0 mm 3 m/s 762 mmHg 79%
    04:00 +1°C° 0 mm 3 m/s 762 mmHg 79%
    05:00 +1°C° 0 mm 3 m/s 761 mmHg 80%
    06:00 0°C° 0 mm 4 m/s 761 mmHg 79%
    07:00 +1°C° 0 mm 4 m/s 761 mmHg 78%
    08:00 +1°C° 0 mm 4 m/s 761 mmHg 77%
    09:00 +3°C° 0 mm 5 m/s 761 mmHg 72%
    10:00 +6°C° 0 mm 5 m/s 761 mmHg 67%
    11:00 +7°C° 0 mm 5 m/s 760 mmHg 61%
    12:00 +8°C° 0 mm 5 m/s 760 mmHg 59%
    13:00 +9°C° 0 mm 5 m/s 759 mmHg 56%
    14:00 +10°C° 0 mm 5 m/s 758 mmHg 53%
    15:00 +10°C° 0 mm 5 m/s 758 mmHg 55%
    16:00 +10°C° 0 mm 5 m/s 757 mmHg 57%
    17:00 +10°C° 0 mm 5 m/s 757 mmHg 58%
    18:00 +9°C° 0 mm 5 m/s 756 mmHg 61%
    19:00 +8°C° 0 mm 6 m/s 756 mmHg 64%
    20:00 +7°C° 0 mm 6 m/s 756 mmHg 67%
    21:00 +5°C° 0 mm 6 m/s 756 mmHg 70%
    22:00 +5°C° 0 mm 6 m/s 755 mmHg 72%
    23:00 +5°C° 0 mm 7 m/s 755 mmHg 75%
    Voir plus